Regional Weather Roundup
Issued by NWS

Home | Current Version | Previous Version | Graphics & Text | Print | Product List | Glossary On
Versions: 1 2 3 4 5 6 7 8 9 10 11 12 13 14 15 16 17 18 19 20 21 22 23 24 25 26 27 28 29 30 31 32 33 34 35 36 37 38 39 40 41 42 43 44 45 46 47 48 49 50
000
ASUS43 KLOT 312006
RWRIL

ILLINOIS REGIONAL WEATHER ROUNDUP
NATIONAL WEATHER SERVICE CHICAGO/ROMEOVILLE IL
300 PM CDT THU JUL 31 2014

NOTE: "FAIR" INDICATES FEW OR NO CLOUDS BELOW 12,000 FEET WITH NO
SIGNIFICANT WEATHER AND/OR OBSTRUCTIONS TO VISIBILITY.

* THESE STATIONS ARE NOT UNDER NWS QUALITY CONTROL. THEY ALSO MAY NOT
  REPORT WEATHER SUCH AS PRECIPITATION OR FOG.

ILZ001-002-007-009-015-016-024-312100-
NORTHWEST ILLINOIS

CITY           SKY/WX    TMP DP  RH WIND       PRES   REMARKS
MOLINE         MOSUNNY   83  57  41 W8        30.05F HX  82
STERLING*      PTSUNNY   82  63  51 NW13      30.06R HX  83
$$

ILZ003-004-008-010-011-017-018-312100-
NORTH CENTRAL ILLINOIS

CITY           SKY/WX    TMP DP  RH WIND       PRES   REMARKS
ROCKFORD       MOSUNNY   83  57  41 W10G20    30.05S HX  82
$$

ILZ005-006-012>014-019>023-312100-
NORTHEAST ILLINOIS

CITY           SKY/WX    TMP DP  RH WIND       PRES   REMARKS
CHICAGO-OHARE  MOSUNNY   84  53  34 W17G25    30.02F HX  82
CHICAGO-MIDWAY MOSUNNY   84  57  39 W10G18    30.02F HX  83
AURORA         SUNNY     81  60  48 W13       30.05S HX  82
WAUKEGAN       PTSUNNY   81  57  43 W8        30.01S HX  81
DUPAGE AIRPORT SUNNY     82  59  45 W14       30.03F HX  82
WHEELING       PTSUNNY   84  55  36 W12G21    30.03F HX  83
NORTHERLY ISL    N/A     81  54  39 SW5         N/A  HX  81
$$

LMZ740>746-312100-
SOUTHERN LAKE MICHIGAN

STATION/POSITION SKY/WX   TEMP    WIND        PRES    VSBY  WAVE
                          AIR SEA DIR/SP/G                  HT/PER
                          (F)     (DEG/KT/KT) (MB)    (MI)  (FT/S)
SOUTHERN BUOY              65 64  160/  4/  4 1016.9S         1
WAUKEGAN HARBOR            80     290/ 10/ 17   N/A
HARRISON CRIB              78     260/ 14/ 16   N/A
BURNHAM HARBOR             80     270/  9/ 13   N/A
CALUMET HARBOR             82     240/  9/ 14 1015.6F
BURNS HARBOR               76     290/  3/  4   N/A
MICHIGAN CITY              76     250/  8/  8   N/A
MICHIGAN CITY 6N           74 71  240/  4/  4   N/A           1
ST. JOSEPH                 70 69  160/  4/  6   N/A           1/ 3
$$

ILZ025>027-034>036-040-047-049-050-058-095>099-312100-
WEST-CENTRAL ILLINOIS

CITY           SKY/WX    TMP DP  RH WIND       PRES   REMARKS
QUINCY         SUNNY     81  58  45 CALM      30.08F HX  81
$$

ILZ028>032-037-038-041>044-048-051>054-059>061-312100-
CENTRAL ILLINOIS

CITY           SKY/WX    TMP DP  RH WIND       PRES   REMARKS
DECATUR        PTSUNNY   81  57  43 SW6       30.09S HX  81
PEORIA         SUNNY     84  58  40 SW8       30.07F HX  83
SPRINGFIELD    SUNNY     83  62  49 NW7       30.08F HX  84
TAYLORVILLE    NOT AVBL
$$

ILZ033-039-045-046-055>057-062-063-312100-
EAST-CENTRAL ILLINOIS

CITY           SKY/WX    TMP DP  RH WIND       PRES   REMARKS
CHAMPAIGN      MOSUNNY   81  60  48 W7        30.09S HX  82
MATTOON        MOSUNNY   81  61  50 NW8       30.08S HX  82
$$

ILZ079-100>102-312100-
SOUTHWEST ILLINOIS

CITY           SKY/WX    TMP DP  RH WIND       PRES   REMARKS
ALTON          MOSUNNY   82  59  44 NE5       30.08F HX  82
CAHOKIA*       MOSUNNY   86  59  39 SE6       30.06F HX  85
$$

ILZ064>066-069>071-074>076-080>082-084>086-088>090-092>094-312100-
SOUTH-CENTRAL ILLINOIS

CITY           SKY/WX    TMP DP  RH WIND       PRES   REMARKS
CARBONDALE     MOSUNNY   83  60  45 VRB3      30.08S HX  83
MARION         PTSUNNY   82  61  47 SW8       30.09F HX  83
MT. VERNON     SUNNY     84  61  45 CALM      30.09F HX  84
$$

ILZ067-068-072-073-078-083-087-091-312100-
SOUTHEAST ILLINOIS

CITY           SKY/WX    TMP DP  RH WIND       PRES   REMARKS
LAWRENCEVILLE  PTSUNNY   82  62  50 S7        30.08F HX  83
$$

ABBREVIATIONS USED IN REMARKS
   TC - TEMPERATURE IN CELSIUS
  WCI - WIND CHILL INDEX
   HX - HEAT INDEX
  VSB - VISIBILITY
$$



USA.gov is the U.S. government's official web portal to all federal, state and local government web resources and services.